Time,TemperatureF,DewpointF,PressureIn,WindDirection,WindDirectionDegrees,WindSpeedMPH,WindSpeedGustMPH,Humidity,HourlyPrecipIn,Conditions,Clouds,dailyrainin,SoftwareType,DateUTC
2013-03-03 00:00:00,39.7,27.0,29.95,East,90,0.0,0.0,60,0.00,,---,0.00,VWS V13.01,2013-03-03 07:00:00,
2013-03-03 00:05:00,39.5,26.8,29.95,East,90,0.0,0.0,60,0.00,,---,0.00,VWS V13.01,2013-03-03 07:05:00,
2013-03-03 00:10:00,39.3,26.6,29.95,East,90,0.0,0.0,60,0.00,,---,0.00,VWS V13.01,2013-03-03 07:10:00,
2013-03-03 00:15:00,39.3,26.6,29.96,East,90,0.0,0.0,60,0.00,,---,0.00,VWS V13.01,2013-03-03 07:15:00,
2013-03-03 00:20:00,39.3,26.6,29.96,East,90,0.0,0.0,60,0.00,,---,0.00,VWS V13.01,2013-03-03 07:20:00,
2013-03-03 00:25:00,39.2,26.5,29.96,East,90,0.0,0.0,60,0.00,,---,0.00,VWS V13.01,2013-03-03 07:25:00,
2013-03-03 00:30:00,39.3,26.6,29.95,East,90,0.0,0.0,60,0.00,,---,0.00,VWS V13.01,2013-03-03 07:30:00,
2013-03-03 00:35:00,39.0,26.3,29.95,East,90,0.0,0.0,60,0.00,,---,0.00,VWS V13.01,2013-03-03 07:35:00,
2013-03-03 00:40:00,38.8,26.1,29.95,East,90,0.0,0.0,60,0.00,,---,0.00,VWS V13.01,2013-03-03 07:40:00,
2013-03-03 00:45:00,38.6,26.3,29.95,East,90,0.0,0.0,61,0.00,,---,0.00,VWS V13.01,2013-03-03 07:45:00,
2013-03-03 00:50:00,38.4,26.1,29.94,East,90,0.0,0.0,61,0.00,,---,0.00,VWS V13.01,2013-03-03 07:50:00,
2013-03-03 00:55:00,38.4,26.1,29.94,East,90,0.0,0.0,61,0.00,,---,0.00,VWS V13.01,2013-03-03 07:55:00,
2013-03-03 01:00:00,38.4,26.1,29.93,East,90,0.0,0.0,61,0.00,,---,0.00,VWS V13.01,2013-03-03 08:00:00,
2013-03-03 01:05:00,38.3,26.0,29.93,East,90,0.0,0.0,61,0.00,,---,0.00,VWS V13.01,2013-03-03 08:05:00,
2013-03-03 01:11:00,38.1,25.9,29.93,East,90,0.0,0.0,61,0.00,,---,0.00,VWS V13.01,2013-03-03 08:11:00,
2013-03-03 01:16:00,38.1,26.2,29.93,East,90,0.0,0.0,62,0.00,,---,0.00,VWS V13.01,2013-03-03 08:16:00,
2013-03-03 01:21:00,37.9,26.1,29.93,East,90,0.0,0.0,62,0.00,,---,0.00,VWS V13.01,2013-03-03 08:21:00,
2013-03-03 01:26:00,37.9,26.1,29.93,East,90,0.0,0.0,62,0.00,,---,0.00,VWS V13.01,2013-03-03 08:26:00,
2013-03-03 01:31:00,37.7,25.9,29.92,East,90,0.0,0.0,62,0.00,,---,0.00,VWS V13.01,2013-03-03 08:31:00,
2013-03-03 01:36:00,37.5,25.7,29.92,East,90,0.0,0.0,62,0.00,,---,0.00,VWS V13.01,2013-03-03 08:36:00,
2013-03-03 01:41:00,37.5,25.7,29.92,East,90,0.0,0.0,62,0.00,,---,0.00,VWS V13.01,2013-03-03 08:41:00,
2013-03-03 01:46:00,37.5,25.7,29.92,East,90,0.0,0.0,62,0.00,,---,0.00,VWS V13.01,2013-03-03 08:46:00,
2013-03-03 01:51:00,37.4,25.6,29.92,East,90,0.0,0.0,62,0.00,,---,0.00,VWS V13.01,2013-03-03 08:51:00,
2013-03-03 01:57:00,37.2,25.4,29.92,East,90,0.0,0.0,62,0.00,,---,0.00,VWS V13.01,2013-03-03 08:57:00,
2013-03-03 02:02:00,37.2,25.4,29.92,East,90,0.0,0.0,62,0.00,,---,0.00,VWS V13.01,2013-03-03 09:02:00,
2013-03-03 02:07:00,37.0,25.2,29.92,East,90,0.0,0.0,62,0.00,,---,0.00,VWS V13.01,2013-03-03 09:07:00,
2013-03-03 02:12:00,37.0,25.2,29.92,East,90,0.0,0.0,62,0.00,,---,0.00,VWS V13.01,2013-03-03 09:12:00,
2013-03-03 02:17:00,37.0,25.2,29.92,East,90,0.0,0.0,62,0.00,,---,0.00,VWS V13.01,2013-03-03 09:17:00,
2013-03-03 02:22:00,36.8,25.4,29.92,East,90,0.0,0.0,63,0.00,,---,0.00,VWS V13.01,2013-03-03 09:22:00,
2013-03-03 02:27:00,36.6,25.2,29.92,East,90,0.0,0.0,63,0.00,,---,0.00,VWS V13.01,2013-03-03 09:27:00,
2013-03-03 02:32:00,36.3,24.9,29.91,East,90,0.0,0.0,63,0.00,,---,0.00,VWS V13.01,2013-03-03 09:32:00,
2013-03-03 02:38:00,36.1,25.1,29.90,East,90,0.0,0.0,64,0.00,,---,0.00,VWS V13.01,2013-03-03 09:38:00,
2013-03-03 02:43:00,35.9,24.9,29.91,East,90,0.0,0.0,64,0.00,,---,0.00,VWS V13.01,2013-03-03 09:43:00,
2013-03-03 02:48:00,35.7,24.7,29.90,East,90,0.0,0.0,64,0.00,,---,0.00,VWS V13.01,2013-03-03 09:48:00,
2013-03-03 02:53:00,35.7,24.7,29.90,East,90,0.0,0.0,64,0.00,,---,0.00,VWS V13.01,2013-03-03 09:53:00,
2013-03-03 02:58:00,35.7,24.7,29.90,East,90,0.0,0.0,64,0.00,,---,0.00,VWS V13.01,2013-03-03 09:58:00,
2013-03-03 03:03:00,35.7,25.1,29.89,East,90,0.0,0.0,65,0.00,,---,0.00,VWS V13.01,2013-03-03 10:03:00,
2013-03-03 03:08:00,35.7,25.1,29.89,East,90,0.0,0.0,65,0.00,,---,0.00,VWS V13.01,2013-03-03 10:08:00,
2013-03-03 03:13:00,35.7,25.1,29.89,East,90,0.0,0.0,65,0.00,,---,0.00,VWS V13.01,2013-03-03 10:13:00,
2013-03-03 03:18:00,35.7,25.1,29.89,East,90,0.0,0.0,65,0.00,,---,0.00,VWS V13.01,2013-03-03 10:18:00,
2013-03-03 03:23:00,35.7,25.1,29.88,East,90,0.0,0.0,65,0.00,,---,0.00,VWS V13.01,2013-03-03 10:23:00,
2013-03-03 03:28:00,35.7,25.1,29.88,East,90,0.0,0.0,65,0.00,,---,0.00,VWS V13.01,2013-03-03 10:28:00,
2013-03-03 03:33:00,35.7,25.1,29.88,East,90,0.0,0.0,65,0.00,,---,0.00,VWS V13.01,2013-03-03 10:33:00,
2013-03-03 03:38:00,35.9,25.3,29.87,East,90,0.0,0.0,65,0.00,,---,0.00,VWS V13.01,2013-03-03 10:38:00,
2013-03-03 03:43:00,36.1,25.5,29.87,East,90,0.0,0.0,65,0.00,,---,0.00,VWS V13.01,2013-03-03 10:43:00,
2013-03-03 03:48:00,36.3,25.7,29.87,East,90,0.0,0.0,65,0.00,,---,0.00,VWS V13.01,2013-03-03 10:48:00,
2013-03-03 03:53:00,36.5,25.9,29.87,East,90,0.0,0.0,65,0.00,,---,0.00,VWS V13.01,2013-03-03 10:53:00,
2013-03-03 03:58:00,36.6,26.0,29.87,East,90,0.0,0.0,65,0.00,,---,0.00,VWS V13.01,2013-03-03 10:58:00,
2013-03-03 04:03:00,36.6,26.0,29.87,East,90,0.0,0.0,65,0.00,,---,0.00,VWS V13.01,2013-03-03 11:03:00,
2013-03-03 04:08:00,36.8,26.1,29.87,East,90,0.0,0.0,65,0.00,,---,0.00,VWS V13.01,2013-03-03 11:08:00,
2013-03-03 04:13:00,36.8,26.1,29.87,East,90,0.0,0.0,65,0.00,,---,0.00,VWS V13.01,2013-03-03 11:13:00,
2013-03-03 04:18:00,37.0,26.3,29.87,East,90,0.0,0.0,65,0.00,,---,0.00,VWS V13.01,2013-03-03 11:18:00,
2013-03-03 04:23:00,37.2,26.5,29.87,East,90,0.0,0.0,65,0.00,,---,0.00,VWS V13.01,2013-03-03 11:23:00,
2013-03-03 04:28:00,37.2,26.5,29.86,East,90,0.0,0.0,65,0.00,,---,0.00,VWS V13.01,2013-03-03 11:28:00,
2013-03-03 04:33:00,37.5,26.8,29.86,East,90,0.0,0.0,65,0.00,,---,0.00,VWS V13.01,2013-03-03 11:33:00,
2013-03-03 04:38:00,37.9,27.2,29.87,East,90,0.0,0.0,65,0.00,,---,0.00,VWS V13.01,2013-03-03 11:38:00,
2013-03-03 04:43:00,37.9,26.8,29.86,East,90,0.0,0.0,64,0.00,,---,0.00,VWS V13.01,2013-03-03 11:43:00,
2013-03-03 04:48:00,38.1,27.0,29.86,East,90,0.0,0.0,64,0.00,,---,0.00,VWS V13.01,2013-03-03 11:48:00,
2013-03-03 04:53:00,38.4,27.3,29.86,East,90,0.0,0.0,64,0.00,,---,0.00,VWS V13.01,2013-03-03 11:53:00,
2013-03-03 04:58:00,38.4,27.3,29.86,East,90,0.0,0.0,64,0.00,,---,0.00,VWS V13.01,2013-03-03 11:58:00,
2013-03-03 05:03:00,38.8,27.3,29.86,East,90,0.0,0.0,63,0.00,,---,0.00,VWS V13.01,2013-03-03 12:03:00,
2013-03-03 05:08:00,38.8,27.3,29.85,SSW,202,0.0,0.0,63,0.00,,---,0.00,VWS V13.01,2013-03-03 12:08:00,
2013-03-03 05:13:00,39.0,27.5,29.86,SSW,202,0.8,0.8,63,0.00,,---,0.00,VWS V13.01,2013-03-03 12:13:00,
2013-03-03 05:18:00,39.2,27.7,29.86,SSW,202,0.0,0.0,63,0.00,,---,0.00,VWS V13.01,2013-03-03 12:18:00,
2013-03-03 05:23:00,39.3,27.8,29.85,SSW,202,0.0,0.0,63,0.00,,---,0.00,VWS V13.01,2013-03-03 12:23:00,
2013-03-03 05:28:00,39.3,27.8,29.85,SW,225,0.0,0.0,63,0.00,,---,0.00,VWS V13.01,2013-03-03 12:28:00,
2013-03-03 05:33:00,39.5,28.0,29.85,SSE,158,0.0,0.0,63,0.00,,---,0.00,VWS V13.01,2013-03-03 12:33:00,
2013-03-03 05:38:00,39.7,28.1,29.85,SSW,202,0.0,0.0,63,0.00,,---,0.00,VWS V13.01,2013-03-03 12:38:00,
2013-03-03 05:43:00,39.9,28.3,29.85,SSW,202,0.0,0.0,63,0.00,,---,0.00,VWS V13.01,2013-03-03 12:43:00,
2013-03-03 05:48:00,40.1,28.1,29.85,SSW,202,0.0,0.0,62,0.00,,---,0.00,VWS V13.01,2013-03-03 12:48:00,
2013-03-03 05:53:00,40.1,28.1,29.85,SSW,202,0.0,0.0,62,0.00,,---,0.00,VWS V13.01,2013-03-03 12:53:00,
2013-03-03 05:58:00,40.1,28.1,29.84,SSW,202,0.0,0.0,62,0.00,,---,0.00,VWS V13.01,2013-03-03 12:58:00,
2013-03-03 06:03:00,40.1,28.1,29.84,South,180,0.0,0.0,62,0.00,,---,0.00,VWS V13.01,2013-03-03 13:03:00,
2013-03-03 06:08:00,40.2,28.2,29.84,South,180,0.0,0.0,62,0.00,,---,0.00,VWS V13.01,2013-03-03 13:08:00,
2013-03-03 06:13:00,40.2,27.8,29.84,South,180,0.0,0.0,61,0.00,,---,0.00,VWS V13.01,2013-03-03 13:13:00,
2013-03-03 06:18:00,40.2,27.8,29.84,South,180,0.0,0.0,61,0.00,,---,0.00,VWS V13.01,2013-03-03 13:18:00,
2013-03-03 06:23:00,40.2,27.8,29.84,South,180,0.0,0.0,61,0.00,,---,0.00,VWS V13.01,2013-03-03 13:23:00,
2013-03-03 06:28:00,40.1,27.8,29.84,South,180,0.0,0.0,61,0.00,,---,0.00,VWS V13.01,2013-03-03 13:28:00,
2013-03-03 06:33:00,40.2,27.8,29.84,South,180,0.0,0.0,61,0.00,,---,0.00,VWS V13.01,2013-03-03 13:33:00,
2013-03-03 06:38:00,40.2,27.8,29.84,South,180,0.0,0.0,61,0.00,,---,0.00,VWS V13.01,2013-03-03 13:38:00,
2013-03-03 06:43:00,40.2,27.8,29.84,SSW,202,0.0,0.0,61,0.00,,---,0.00,VWS V13.01,2013-03-03 13:43:00,
2013-03-03 06:48:00,40.2,27.8,29.84,SSW,202,0.0,0.0,61,0.00,,---,0.00,VWS V13.01,2013-03-03 13:48:00,
2013-03-03 06:53:00,40.2,27.8,29.84,SW,225,0.0,0.0,61,0.00,,---,0.00,VWS V13.01,2013-03-03 13:53:00,
2013-03-03 06:58:00,40.2,27.8,29.84,SW,225,0.0,0.0,61,0.00,,---,0.00,VWS V13.01,2013-03-03 13:58:00,
2013-03-03 07:03:00,40.2,27.8,29.83,SSW,202,0.0,0.0,61,0.00,,---,0.00,VWS V13.01,2013-03-03 14:03:00,
2013-03-03 07:08:00,40.2,27.8,29.83,SW,225,0.0,0.0,61,0.00,,---,0.00,VWS V13.01,2013-03-03 14:08:00,
2013-03-03 07:13:00,40.2,27.8,29.83,SSW,202,0.0,0.0,61,0.00,,---,0.00,VWS V13.01,2013-03-03 14:13:00,
2013-03-03 07:18:00,40.2,27.8,29.83,SSW,202,0.0,0.0,61,0.00,,---,0.00,VWS V13.01,2013-03-03 14:18:00,
2013-03-03 07:23:00,40.1,27.8,29.83,SSW,202,0.0,0.0,61,0.00,,---,0.00,VWS V13.01,2013-03-03 14:23:00,
2013-03-03 07:28:00,40.1,27.8,29.82,SSW,202,0.0,0.0,61,0.00,,---,0.00,VWS V13.01,2013-03-03 14:28:00,
2013-03-03 07:33:00,40.2,27.8,29.82,South,180,4.6,4.9,61,0.00,,---,0.00,VWS V13.01,2013-03-03 14:33:00,
2013-03-03 07:38:00,40.2,27.8,29.82,SSW,202,0.0,0.0,61,0.00,,---,0.00,VWS V13.01,2013-03-03 14:38:00,
2013-03-03 07:43:00,40.4,28.0,29.82,SSW,202,0.0,0.0,61,0.00,,---,0.00,VWS V13.01,2013-03-03 14:43:00,
2013-03-03 07:48:00,40.6,28.2,29.82,SSW,202,0.0,0.0,61,0.00,,---,0.00,VWS V13.01,2013-03-03 14:48:00,
2013-03-03 07:53:00,40.6,28.2,29.82,SSW,202,5.5,5.5,61,0.00,,---,0.00,VWS V13.01,2013-03-03 14:53:00,
2013-03-03 07:58:00,40.6,28.2,29.82,SSW,202,0.0,0.0,61,0.00,,---,0.00,VWS V13.01,2013-03-03 14:58:00,
2013-03-03 08:03:00,40.8,28.4,29.81,SSW,202,0.0,0.0,61,0.00,,---,0.00,VWS V13.01,2013-03-03 15:03:00,
2013-03-03 08:08:00,40.8,28.4,29.81,SSW,202,0.0,0.0,61,0.00,,---,0.00,VWS V13.01,2013-03-03 15:08:00,
2013-03-03 08:13:00,40.8,28.4,29.81,SSW,202,0.0,0.0,61,0.00,,---,0.00,VWS V13.01,2013-03-03 15:13:00,
2013-03-03 08:18:00,41.0,28.6,29.81,SSW,202,0.0,0.0,61,0.00,,---,0.00,VWS V13.01,2013-03-03 15:18:00,
2013-03-03 08:23:00,41.1,28.7,29.81,SSW,202,1.1,1.1,61,0.00,,---,0.00,VWS V13.01,2013-03-03 15:23:00,
2013-03-03 08:28:00,41.3,28.9,29.81,SSW,202,5.3,5.3,61,0.00,,---,0.00,VWS V13.01,2013-03-03 15:28:00,
2013-03-03 08:33:00,41.5,29.1,29.80,SSW,202,0.0,7.6,61,0.00,,---,0.00,VWS V13.01,2013-03-03 15:33:00,
2013-03-03 08:38:00,41.7,29.3,29.80,SSW,202,0.0,0.0,61,0.00,,---,0.00,VWS V13.01,2013-03-03 15:38:00,
2013-03-03 08:43:00,41.9,29.5,29.80,SSW,202,0.0,0.0,61,0.00,,---,0.00,VWS V13.01,2013-03-03 15:43:00,
2013-03-03 08:48:00,42.0,29.5,29.80,SSW,202,0.0,0.0,61,0.00,,---,0.00,VWS V13.01,2013-03-03 15:48:00,
2013-03-03 08:53:00,42.4,29.9,29.79,SSW,202,0.0,0.0,61,0.00,,---,0.00,VWS V13.01,2013-03-03 15:53:00,
2013-03-03 08:58:00,42.4,29.9,29.79,SSW,202,0.0,0.0,61,0.00,,---,0.00,VWS V13.01,2013-03-03 15:58:00,
2013-03-03 09:03:00,42.6,29.7,29.79,WSW,248,5.3,5.3,60,0.00,,---,0.00,VWS V13.01,2013-03-03 16:03:00,
2013-03-03 09:08:00,42.9,30.0,29.79,SW,225,0.0,0.0,60,0.00,,---,0.00,VWS V13.01,2013-03-03 16:08:00,
2013-03-03 09:13:00,43.3,30.4,29.79,SW,225,0.0,0.0,60,0.00,,---,0.00,VWS V13.01,2013-03-03 16:13:00,
2013-03-03 09:18:00,43.5,30.5,29.79,WSW,248,0.0,0.0,60,0.00,,---,0.00,VWS V13.01,2013-03-03 16:18:00,
2013-03-03 09:23:00,43.8,30.8,29.79,SW,225,0.0,0.0,60,0.00,,---,0.00,VWS V13.01,2013-03-03 16:23:00,
2013-03-03 09:28:00,44.0,30.6,29.79,SW,225,0.0,0.0,59,0.00,,---,0.00,VWS V13.01,2013-03-03 16:28:00,
2013-03-03 09:33:00,44.2,30.8,29.79,SW,225,0.0,0.0,59,0.00,,---,0.00,VWS V13.01,2013-03-03 16:33:00,
2013-03-03 09:38:00,44.4,31.0,29.79,SW,225,0.0,0.0,59,0.00,,---,0.00,VWS V13.01,2013-03-03 16:38:00,
2013-03-03 09:43:00,44.4,31.0,29.78,SW,225,0.0,0.0,59,0.00,,---,0.00,VWS V13.01,2013-03-03 16:43:00,
2013-03-03 09:48:00,44.4,31.0,29.78,SW,225,0.0,0.0,59,0.00,,---,0.00,VWS V13.01,2013-03-03 16:48:00,
2013-03-03 09:53:00,44.6,31.2,29.78,SW,225,0.0,0.0,59,0.00,,---,0.00,VWS V13.01,2013-03-03 16:53:00,
2013-03-03 09:58:00,44.7,30.9,29.77,WSW,248,0.0,0.0,58,0.00,,---,0.00,VWS V13.01,2013-03-03 16:58:00,
2013-03-03 10:03:00,44.9,31.0,29.77,WSW,248,0.0,0.0,58,0.00,,---,0.00,VWS V13.01,2013-03-03 17:03:00,
2013-03-03 10:08:00,44.9,31.0,29.77,WSW,248,0.0,0.0,58,0.00,,---,0.00,VWS V13.01,2013-03-03 17:08:00,
2013-03-03 10:13:00,44.9,31.0,29.77,WSW,248,0.0,0.0,58,0.00,,---,0.00,VWS V13.01,2013-03-03 17:13:00,
2013-03-03 10:18:00,45.1,30.8,29.77,SSW,202,4.6,4.6,57,0.00,,---,0.00,VWS V13.01,2013-03-03 17:18:00,
2013-03-03 10:23:00,45.1,30.8,29.76,South,180,0.0,0.0,57,0.00,,---,0.00,VWS V13.01,2013-03-03 17:23:00,
2013-03-03 10:28:00,45.3,31.0,29.77,South,180,0.0,0.0,57,0.00,,---,0.00,VWS V13.01,2013-03-03 17:28:00,
2013-03-03 10:33:00,45.3,31.0,29.77,South,180,0.0,0.0,57,0.00,,---,0.00,VWS V13.01,2013-03-03 17:33:00,
2013-03-03 10:38:00,45.5,31.2,29.75,South,180,0.0,0.0,57,0.00,,---,0.00,VWS V13.01,2013-03-03 17:38:00,
2013-03-03 10:43:00,45.5,31.2,29.75,South,180,0.0,0.0,57,0.00,,---,0.00,VWS V13.01,2013-03-03 17:43:00,
2013-03-03 10:48:00,45.6,31.3,29.75,South,180,0.0,0.0,57,0.00,,---,0.00,VWS V13.01,2013-03-03 17:48:00,
2013-03-03 10:53:00,45.6,31.3,29.75,South,180,0.0,0.0,57,0.00,,---,0.00,VWS V13.01,2013-03-03 17:53:00,
2013-03-03 10:58:00,46.0,31.6,29.74,South,180,0.0,0.0,57,0.00,,---,0.00,VWS V13.01,2013-03-03 17:58:00,
2013-03-03 11:03:00,46.0,31.2,29.74,South,180,0.0,0.0,56,0.00,,---,0.00,VWS V13.01,2013-03-03 18:03:00,
2013-03-03 11:08:00,46.2,31.4,29.74,South,180,0.0,0.0,56,0.00,,---,0.00,VWS V13.01,2013-03-03 18:08:00,
2013-03-03 11:13:00,46.5,31.7,29.74,South,180,0.0,0.0,56,0.00,,---,0.00,VWS V13.01,2013-03-03 18:13:00,
2013-03-03 11:18:00,46.5,31.7,29.74,South,180,0.0,0.0,56,0.00,,---,0.00,VWS V13.01,2013-03-03 18:18:00,
2013-03-03 11:23:00,46.7,31.9,29.74,South,180,0.0,0.0,56,0.00,,---,0.00,VWS V13.01,2013-03-03 18:23:00,
2013-03-03 11:28:00,46.7,31.4,29.74,South,180,0.0,0.0,55,0.00,,---,0.00,VWS V13.01,2013-03-03 18:28:00,
2013-03-03 11:33:00,46.9,31.6,29.74,SE,135,0.0,0.0,55,0.00,,---,0.00,VWS V13.01,2013-03-03 18:33:00,
2013-03-03 11:38:00,47.1,31.8,29.74,East,90,0.0,0.0,55,0.00,,---,0.00,VWS V13.01,2013-03-03 18:38:00,
2013-03-03 11:43:00,47.1,31.3,29.74,ENE,68,0.0,0.0,54,0.00,,---,0.00,VWS V13.01,2013-03-03 18:43:00,
2013-03-03 11:48:00,47.1,31.3,29.74,ENE,68,0.0,0.0,54,0.00,,---,0.00,VWS V13.01,2013-03-03 18:48:00,
2013-03-03 11:53:00,47.1,31.8,29.74,ENE,68,0.0,0.0,55,0.00,,---,0.00,VWS V13.01,2013-03-03 18:53:00,
2013-03-03 11:58:00,47.3,32.0,29.74,ENE,68,0.0,0.0,55,0.00,,---,0.00,VWS V13.01,2013-03-03 18:58:00,
2013-03-03 12:04:00,47.3,32.0,29.74,ENE,68,0.0,0.0,55,0.00,,---,0.00,VWS V13.01,2013-03-03 19:04:00,
2013-03-03 12:09:00,47.4,32.1,29.73,ENE,68,5.3,5.8,55,0.00,,---,0.00,VWS V13.01,2013-03-03 19:09:00,
2013-03-03 12:14:00,47.6,32.2,29.73,NE,45,0.0,0.0,55,0.00,,---,0.00,VWS V13.01,2013-03-03 19:14:00,
2013-03-03 12:19:00,47.8,32.0,29.73,NE,45,0.0,0.0,54,0.00,,---,0.00,VWS V13.01,2013-03-03 19:19:00,
2013-03-03 12:24:00,48.0,32.2,29.72,ENE,68,0.0,0.0,54,0.00,,---,0.00,VWS V13.01,2013-03-03 19:24:00,
2013-03-03 12:29:00,48.3,32.0,29.72,ENE,68,0.0,5.3,53,0.00,,---,0.00,VWS V13.01,2013-03-03 19:29:00,
2013-03-03 12:34:00,48.7,32.3,29.72,ENE,68,6.9,6.9,53,0.00,,---,0.00,VWS V13.01,2013-03-03 19:34:00,
2013-03-03 12:39:00,49.1,32.7,29.71,ENE,68,0.0,0.0,53,0.00,,---,0.00,VWS V13.01,2013-03-03 19:39:00,
2013-03-03 12:44:00,49.2,32.3,29.71,ENE,68,1.3,1.7,52,0.00,,---,0.00,VWS V13.01,2013-03-03 19:44:00,
2013-03-03 12:49:00,49.6,32.7,29.71,NE,45,7.6,7.6,52,0.00,,---,0.00,VWS V13.01,2013-03-03 19:49:00,
2013-03-03 12:54:00,49.8,32.9,29.71,NNE,22,3.5,6.2,52,0.00,,---,0.00,VWS V13.01,2013-03-03 19:54:00,
2013-03-03 12:59:00,50.0,33.1,29.71,NE,45,0.0,0.0,52,0.00,,---,0.00,VWS V13.01,2013-03-03 19:59:00,
2013-03-03 13:04:00,50.1,33.2,29.70,NE,45,0.0,0.0,52,0.00,,---,0.00,VWS V13.01,2013-03-03 20:04:00,
2013-03-03 13:09:00,50.1,32.7,29.70,NE,45,4.6,4.6,51,0.00,,---,0.00,VWS V13.01,2013-03-03 20:09:00,
2013-03-03 13:14:00,50.1,32.7,29.70,NE,45,0.0,0.0,51,0.00,,---,0.00,VWS V13.01,2013-03-03 20:14:00,
2013-03-03 13:19:00,50.3,32.9,29.69,NE,45,2.0,2.0,51,0.00,,---,0.00,VWS V13.01,2013-03-03 20:19:00,
2013-03-03 13:25:00,50.7,33.2,29.69,ENE,68,6.2,6.2,51,0.00,,---,0.00,VWS V13.01,2013-03-03 20:25:00,
2013-03-03 13:30:00,50.9,33.4,29.68,NE,45,4.9,4.9,51,0.00,,---,0.00,VWS V13.01,2013-03-03 20:30:00,
2013-03-03 13:35:00,51.0,33.5,29.68,ENE,68,0.0,1.1,51,0.00,,---,0.00,VWS V13.01,2013-03-03 20:35:00,
2013-03-03 13:40:00,51.4,33.4,29.67,NNE,22,0.0,0.0,50,0.00,,---,0.00,VWS V13.01,2013-03-03 20:40:00,
2013-03-03 13:45:00,51.4,33.4,29.68,North,0,0.6,0.6,50,0.00,,---,0.00,VWS V13.01,2013-03-03 20:45:00,
2013-03-03 13:50:00,51.4,32.9,29.66,NE,45,5.3,5.3,49,0.00,,---,0.00,VWS V13.01,2013-03-03 20:50:00,
2013-03-03 13:55:00,51.6,33.1,29.66,NNW,338,1.5,1.5,49,0.00,,---,0.00,VWS V13.01,2013-03-03 20:55:00,
2013-03-03 14:00:00,51.9,33.4,29.66,NNE,22,0.0,0.0,49,0.00,,---,0.00,VWS V13.01,2013-03-03 21:00:00,
2013-03-03 14:05:00,52.1,33.5,29.65,NE,45,0.0,2.4,49,0.00,,---,0.00,VWS V13.01,2013-03-03 21:05:00,
2013-03-03 14:10:00,52.3,33.7,29.65,NE,45,5.5,5.5,49,0.00,,---,0.00,VWS V13.01,2013-03-03 21:10:00,
2013-03-03 14:15:00,52.5,33.9,29.65,NE,45,6.9,6.9,49,0.00,,---,0.00,VWS V13.01,2013-03-03 21:15:00,
2013-03-03 14:20:00,52.7,33.6,29.64,NE,45,6.2,6.2,48,0.00,,---,0.00,VWS V13.01,2013-03-03 21:20:00,
2013-03-03 14:25:00,52.7,33.6,29.64,NE,45,3.8,3.8,48,0.00,,---,0.00,VWS V13.01,2013-03-03 21:25:00,
2013-03-03 14:31:00,52.5,33.4,29.65,NNE,22,4.9,5.8,48,0.00,,---,0.00,VWS V13.01,2013-03-03 21:31:00,
2013-03-03 14:36:00,52.5,33.4,29.65,NNE,22,7.8,7.8,48,0.00,,---,0.00,VWS V13.01,2013-03-03 21:36:00,
2013-03-03 14:41:00,51.9,34.4,29.68,WNW,292,14.3,14.3,51,0.00,,---,0.00,VWS V13.01,2013-03-03 21:41:00,
2013-03-03 14:46:00,49.6,32.7,29.69,West,270,13.4,13.4,52,0.00,,---,0.00,VWS V13.01,2013-03-03 21:46:00,
2013-03-03 14:51:00,46.2,31.8,29.72,WNW,292,18.3,18.3,57,0.00,,---,0.00,VWS V13.01,2013-03-03 21:51:00,
2013-03-03 14:56:00,42.4,30.3,29.74,WSW,248,9.1,9.1,62,0.00,,---,0.00,VWS V13.01,2013-03-03 21:56:00,
2013-03-03 15:02:00,39.7,29.3,29.75,West,270,12.9,12.9,66,0.00,,---,0.00,VWS V13.01,2013-03-03 22:02:00,
2013-03-03 15:07:00,37.2,28.7,29.76,WSW,248,13.4,13.4,71,0.00,,---,0.00,VWS V13.01,2013-03-03 22:07:00,
2013-03-03 15:12:00,36.3,28.5,29.77,WNW,292,17.8,17.8,73,0.00,,---,0.00,VWS V13.01,2013-03-03 22:12:00,
2013-03-03 15:17:00,35.2,28.1,29.77,West,270,14.3,14.3,75,0.02,,---,0.02,VWS V13.01,2013-03-03 22:17:00,
2013-03-03 15:22:00,34.3,27.9,29.79,West,270,10.2,15.6,77,0.02,,---,0.02,VWS V13.01,2013-03-03 22:22:00,
2013-03-03 15:27:00,34.1,28.0,29.80,SSW,202,4.0,4.0,78,0.02,,---,0.02,VWS V13.01,2013-03-03 22:27:00,
2013-03-03 15:32:00,33.4,27.3,29.82,West,270,0.0,0.0,78,0.02,,---,0.02,VWS V13.01,2013-03-03 22:32:00,
2013-03-03 15:37:00,32.1,26.3,29.82,NW,315,0.0,0.0,79,0.02,,---,0.02,VWS V13.01,2013-03-03 22:37:00,
2013-03-03 15:42:00,31.8,26.0,29.83,NW,315,0.0,0.0,79,0.02,,---,0.02,VWS V13.01,2013-03-03 22:42:00,
2013-03-03 15:48:00,31.2,25.5,29.83,NW,315,0.0,0.0,79,0.02,,---,0.02,VWS V13.01,2013-03-03 22:48:00,
2013-03-03 15:53:00,30.9,25.2,29.83,NW,315,0.0,0.0,79,0.02,,---,0.02,VWS V13.01,2013-03-03 22:53:00,
2013-03-03 15:58:00,30.7,25.3,29.85,NW,315,0.0,0.0,80,0.02,,---,0.02,VWS V13.01,2013-03-03 22:58:00,
2013-03-03 16:04:00,30.7,25.3,29.86,NW,315,0.0,0.0,80,0.02,,---,0.02,VWS V13.01,2013-03-03 23:04:00,
2013-03-03 16:09:00,30.3,25.2,29.85,NW,315,0.0,0.0,81,0.02,,---,0.02,VWS V13.01,2013-03-03 23:09:00,
2013-03-03 16:14:00,30.2,25.1,29.86,NW,315,0.0,0.0,81,0.00,,---,0.02,VWS V13.01,2013-03-03 23:14:00,
2013-03-03 16:19:00,30.0,24.9,29.85,NW,315,0.0,0.0,81,0.00,,---,0.02,VWS V13.01,2013-03-03 23:19:00,
2013-03-03 16:24:00,30.0,24.9,29.86,NW,315,0.0,0.0,81,0.00,,---,0.02,VWS V13.01,2013-03-03 23:24:00,
2013-03-03 16:29:00,30.2,25.1,29.85,NW,315,0.0,0.0,81,0.00,,---,0.02,VWS V13.01,2013-03-03 23:29:00,
2013-03-03 16:34:00,30.3,24.9,29.85,NW,315,0.0,0.0,80,0.00,,---,0.02,VWS V13.01,2013-03-03 23:34:00,
2013-03-03 16:39:00,30.7,25.3,29.84,NW,315,0.0,0.0,80,0.00,,---,0.02,VWS V13.01,2013-03-03 23:39:00,
2013-03-03 16:44:00,30.7,25.3,29.84,NW,315,0.0,0.0,80,0.00,,---,0.02,VWS V13.01,2013-03-03 23:44:00,
2013-03-03 16:49:00,30.9,25.5,29.84,NW,315,0.0,0.0,80,0.00,,---,0.02,VWS V13.01,2013-03-03 23:49:00,
2013-03-03 16:54:00,31.2,25.5,29.84,NW,315,0.0,0.0,79,0.00,,---,0.02,VWS V13.01,2013-03-03 23:54:00,
2013-03-03 16:59:00,31.2,25.1,29.84,NW,315,0.0,0.0,78,0.00,,---,0.02,VWS V13.01,2013-03-03 23:59:00,
2013-03-03 17:04:00,31.6,25.5,29.85,NW,315,0.0,0.0,78,0.00,,---,0.02,VWS V13.01,2013-03-04 00:04:00,
2013-03-03 17:09:00,31.8,24.8,29.85,NW,315,0.0,0.0,75,0.00,,---,0.02,VWS V13.01,2013-03-04 00:09:00,
2013-03-03 17:14:00,32.0,25.0,29.85,NW,315,0.0,0.0,75,0.00,,---,0.02,VWS V13.01,2013-03-04 00:14:00,
2013-03-03 17:19:00,32.1,25.1,29.85,NW,315,0.0,0.0,75,0.00,,---,0.02,VWS V13.01,2013-03-04 00:19:00,
2013-03-03 17:24:00,32.1,25.1,29.85,NW,315,0.0,0.0,75,0.00,,---,0.02,VWS V13.01,2013-03-04 00:24:00,
2013-03-03 17:29:00,32.1,24.8,29.86,NW,315,0.0,0.0,74,0.00,,---,0.02,VWS V13.01,2013-03-04 00:29:00,
2013-03-03 17:34:00,32.1,24.8,29.86,NW,315,0.0,0.0,74,0.00,,---,0.02,VWS V13.01,2013-03-04 00:34:00,
2013-03-03 17:39:00,32.1,24.8,29.86,NW,315,0.0,0.0,74,0.00,,---,0.02,VWS V13.01,2013-03-04 00:39:00,
2013-03-03 17:44:00,32.1,24.8,29.86,NW,315,0.0,0.0,74,0.00,,---,0.02,VWS V13.01,2013-03-04 00:44:00,
2013-03-03 17:49:00,32.1,24.8,29.86,NW,315,0.0,0.0,74,0.00,,---,0.02,VWS V13.01,2013-03-04 00:49:00,
2013-03-03 17:54:00,32.1,24.8,29.86,NW,315,0.0,0.0,74,0.00,,---,0.02,VWS V13.01,2013-03-04 00:54:00,
2013-03-03 17:59:00,32.1,24.4,29.86,NW,315,0.0,0.0,73,0.00,,---,0.02,VWS V13.01,2013-03-04 00:59:00,
2013-03-03 18:04:00,32.1,24.4,29.86,NW,315,0.0,0.0,73,0.00,,---,0.02,VWS V13.01,2013-03-04 01:04:00,
2013-03-03 18:09:00,32.3,24.6,29.87,NW,315,0.0,0.0,73,0.00,,---,0.02,VWS V13.01,2013-03-04 01:09:00,
2013-03-03 18:14:00,32.3,24.3,29.87,NW,315,0.0,0.0,72,0.00,,---,0.02,VWS V13.01,2013-03-04 01:14:00,
2013-03-03 18:19:00,32.3,24.3,29.87,NW,315,0.0,0.0,72,0.00,,---,0.02,VWS V13.01,2013-03-04 01:19:00,
2013-03-03 18:24:00,32.3,24.0,29.87,NW,315,0.0,0.0,71,0.00,,---,0.02,VWS V13.01,2013-03-04 01:24:00,
2013-03-03 18:29:00,32.5,24.2,29.87,NW,315,0.0,0.0,71,0.00,,---,0.02,VWS V13.01,2013-03-04 01:29:00,
2013-03-03 18:34:00,32.5,23.8,29.87,NW,315,0.0,0.0,70,0.00,,---,0.02,VWS V13.01,2013-03-04 01:34:00,
2013-03-03 18:39:00,32.5,23.8,29.88,NW,315,0.0,0.0,70,0.00,,---,0.02,VWS V13.01,2013-03-04 01:39:00,
2013-03-03 18:44:00,32.3,23.6,29.88,NW,315,0.0,0.0,70,0.00,,---,0.02,VWS V13.01,2013-03-04 01:44:00,
2013-03-03 18:49:00,32.3,23.6,29.89,NW,315,0.0,0.0,70,0.00,,---,0.02,VWS V13.01,2013-03-04 01:49:00,
2013-03-03 18:54:00,32.3,23.6,29.89,NW,315,0.0,0.0,70,0.00,,---,0.02,VWS V13.01,2013-03-04 01:54:00,
2013-03-03 18:59:00,32.1,23.4,29.89,NW,315,0.0,0.0,70,0.00,,---,0.02,VWS V13.01,2013-03-04 01:59:00,
2013-03-03 19:04:00,32.1,23.4,29.89,NW,315,0.0,0.0,70,0.00,,---,0.02,VWS V13.01,2013-03-04 02:04:00,
2013-03-03 19:09:00,32.1,23.4,29.89,NW,315,0.0,0.0,70,0.00,,---,0.02,VWS V13.01,2013-03-04 02:09:00,
2013-03-03 19:14:00,32.1,23.1,29.90,NW,315,0.0,0.0,69,0.00,,---,0.02,VWS V13.01,2013-03-04 02:14:00,
2013-03-03 19:20:00,31.8,22.8,29.90,NW,315,0.0,0.0,69,0.00,,---,0.02,VWS V13.01,2013-03-04 02:20:00,
2013-03-03 19:26:00,31.8,22.8,29.91,NW,315,0.0,0.0,69,0.00,,---,0.02,VWS V13.01,2013-03-04 02:26:00,
2013-03-03 19:31:00,31.8,22.8,29.90,NW,315,0.0,0.0,69,0.00,,---,0.02,VWS V13.01,2013-03-04 02:31:00,
2013-03-03 19:37:00,31.8,22.5,29.91,NW,315,0.0,0.0,68,0.00,,---,0.02,VWS V13.01,2013-03-04 02:37:00,
2013-03-03 19:42:00,31.6,21.9,29.91,NW,315,0.0,0.0,67,0.00,,---,0.02,VWS V13.01,2013-03-04 02:42:00,
2013-03-03 19:48:00,31.6,21.9,29.92,NW,315,0.0,0.0,67,0.00,,---,0.02,VWS V13.01,2013-03-04 02:48:00,
2013-03-03 19:53:00,31.2,21.5,29.92,NW,315,0.0,0.0,67,0.00,,---,0.02,VWS V13.01,2013-03-04 02:53:00,
2013-03-03 19:58:00,31.2,21.5,29.92,NW,315,0.0,0.0,67,0.00,,---,0.02,VWS V13.01,2013-03-04 02:58:00,
2013-03-03 20:03:00,30.9,21.2,29.92,NW,315,0.0,0.0,67,0.00,,---,0.02,VWS V13.01,2013-03-04 03:03:00,
2013-03-03 20:08:00,30.7,21.1,29.92,NW,315,0.0,0.0,67,0.00,,---,0.02,VWS V13.01,2013-03-04 03:08:00,
2013-03-03 20:13:00,30.5,20.5,29.92,NW,315,0.0,0.0,66,0.00,,---,0.02,VWS V13.01,2013-03-04 03:13:00,
2013-03-03 20:18:00,30.5,20.9,29.92,NW,315,0.0,0.0,67,0.00,,---,0.02,VWS V13.01,2013-03-04 03:18:00,
2013-03-03 20:23:00,30.3,20.7,29.93,NW,315,0.0,0.0,67,0.00,,---,0.02,VWS V13.01,2013-03-04 03:23:00,
2013-03-03 20:28:00,30.2,20.2,29.93,NW,315,0.0,0.0,66,0.00,,---,0.02,VWS V13.01,2013-03-04 03:28:00,
2013-03-03 20:33:00,30.0,20.0,29.93,NW,315,0.0,0.0,66,0.00,,---,0.02,VWS V13.01,2013-03-04 03:33:00,
2013-03-03 20:38:00,29.8,19.8,29.93,NW,315,0.0,0.0,66,0.00,,---,0.02,VWS V13.01,2013-03-04 03:38:00,
2013-03-03 20:43:00,29.8,19.8,29.93,NW,315,0.0,0.0,66,0.00,,---,0.02,VWS V13.01,2013-03-04 03:43:00,
2013-03-03 20:48:00,29.6,19.6,29.94,NW,315,0.0,0.0,66,0.00,,---,0.02,VWS V13.01,2013-03-04 03:48:00,
2013-03-03 20:53:00,29.4,19.8,29.94,NW,315,0.0,0.0,67,0.00,,---,0.02,VWS V13.01,2013-03-04 03:53:00,
2013-03-03 20:58:00,29.1,19.5,29.94,NW,315,0.0,0.0,67,0.00,,---,0.02,VWS V13.01,2013-03-04 03:58:00,
2013-03-03 21:03:00,28.9,19.7,29.94,NW,315,0.0,0.0,68,0.00,,---,0.02,VWS V13.01,2013-03-04 04:03:00,
2013-03-03 21:08:00,28.9,19.7,29.94,NW,315,0.0,0.0,68,0.00,,---,0.02,VWS V13.01,2013-03-04 04:08:00,
2013-03-03 21:13:00,28.7,19.5,29.94,NW,315,0.0,0.0,68,0.00,,---,0.02,VWS V13.01,2013-03-04 04:13:00,
2013-03-03 21:18:00,28.7,19.5,29.93,NW,315,0.0,0.0,68,0.00,,---,0.02,VWS V13.01,2013-03-04 04:18:00,
2013-03-03 21:23:00,28.5,19.3,29.94,NW,315,0.0,0.0,68,0.00,,---,0.02,VWS V13.01,2013-03-04 04:23:00,
2013-03-03 21:28:00,28.5,19.6,29.94,NW,315,0.0,0.0,69,0.00,,---,0.02,VWS V13.01,2013-03-04 04:28:00,
2013-03-03 21:33:00,28.2,19.4,29.94,NW,315,0.0,0.0,69,0.00,,---,0.02,VWS V13.01,2013-03-04 04:33:00,
2013-03-03 21:39:00,28.2,19.4,29.94,NW,315,0.0,0.0,69,0.00,,---,0.02,VWS V13.01,2013-03-04 04:39:00,
2013-03-03 21:44:00,28.2,19.4,29.94,NW,315,0.0,0.0,69,0.00,,---,0.02,VWS V13.01,2013-03-04 04:44:00,
2013-03-03 21:49:00,28.0,19.2,29.94,NW,315,0.0,0.0,69,0.00,,---,0.02,VWS V13.01,2013-03-04 04:49:00,
2013-03-03 21:54:00,27.8,19.0,29.94,NW,315,0.0,0.0,69,0.00,,---,0.02,VWS V13.01,2013-03-04 04:54:00,
2013-03-03 21:59:00,27.6,18.8,29.94,NW,315,0.0,0.0,69,0.00,,---,0.02,VWS V13.01,2013-03-04 04:59:00,
2013-03-03 22:00:00,27.6,18.8,29.94,NW,315,0.0,0.0,69,0.00,,---,0.02,VWS V13.01,2013-03-04 05:00:00,
2013-03-03 22:02:00,27.6,18.8,29.94,NW,315,0.0,0.0,69,0.00,,---,0.02,VWS V13.01,2013-03-04 05:02:00,
2013-03-03 22:03:00,27.6,18.8,29.94,NW,315,0.0,0.0,69,0.00,,---,0.02,VWS V13.01,2013-03-04 05:03:00,
2013-03-03 22:04:00,27.6,18.8,29.94,NW,315,0.0,0.0,69,0.00,,---,0.02,VWS V13.01,2013-03-04 05:04:00,
2013-03-03 22:10:00,27.5,18.7,29.93,NW,315,0.0,0.0,69,0.00,,---,0.02,VWS V13.01,2013-03-04 05:10:00,
2013-03-03 22:15:00,27.3,18.5,29.94,NW,315,0.0,0.0,69,0.00,,---,0.02,VWS V13.01,2013-03-04 05:15:00,
2013-03-03 22:20:00,27.3,18.5,29.94,NW,315,0.0,0.0,69,0.00,,---,0.02,VWS V13.01,2013-03-04 05:20:00,
2013-03-03 22:25:00,27.1,18.3,29.94,NW,315,0.0,0.0,69,0.00,,---,0.02,VWS V13.01,2013-03-04 05:25:00,
2013-03-03 22:31:00,27.1,18.3,29.94,NW,315,0.0,0.0,69,0.00,,---,0.02,VWS V13.01,2013-03-04 05:31:00,
2013-03-03 22:36:00,27.1,18.3,29.94,NW,315,0.0,0.0,69,0.00,,---,0.02,VWS V13.01,2013-03-04 05:36:00,
2013-03-03 22:41:00,27.1,18.3,29.94,NW,315,0.0,0.0,69,0.00,,---,0.02,VWS V13.01,2013-03-04 05:41:00,
2013-03-03 22:46:00,27.1,18.3,29.94,NW,315,0.0,0.0,69,0.00,,---,0.02,VWS V13.01,2013-03-04 05:46:00,
2013-03-03 22:51:00,27.1,18.3,29.94,NW,315,0.0,0.0,69,0.00,,---,0.02,VWS V13.01,2013-03-04 05:51:00,
2013-03-03 22:56:00,27.1,18.3,29.94,NW,315,0.0,0.0,69,0.00,,---,0.02,VWS V13.01,2013-03-04 05:56:00,
2013-03-03 23:01:00,27.1,18.3,29.94,NW,315,5.8,5.8,69,0.00,,---,0.02,VWS V13.01,2013-03-04 06:01:00,
2013-03-03 23:06:00,27.1,18.0,29.95,NW,315,0.0,0.0,68,0.00,,---,0.02,VWS V13.01,2013-03-04 06:06:00,
2013-03-03 23:11:00,27.1,17.6,29.95,NW,315,4.9,6.9,67,0.00,,---,0.02,VWS V13.01,2013-03-04 06:11:00,
2013-03-03 23:16:00,27.1,17.3,29.95,NW,315,3.1,3.1,66,0.00,,---,0.02,VWS V13.01,2013-03-04 06:16:00,
2013-03-03 23:21:00,27.1,16.9,29.95,NW,315,0.0,0.0,65,0.00,,---,0.02,VWS V13.01,2013-03-04 06:21:00,
2013-03-03 23:26:00,27.1,16.9,29.95,NW,315,8.2,8.2,65,0.00,,---,0.02,VWS V13.01,2013-03-04 06:26:00,
2013-03-03 23:31:00,26.9,16.7,29.95,NW,315,2.0,2.0,65,0.00,,---,0.02,VWS V13.01,2013-03-04 06:31:00,
2013-03-03 23:36:00,26.9,16.7,29.96,NW,315,8.0,8.0,65,0.00,,---,0.02,VWS V13.01,2013-03-04 06:36:00,
2013-03-03 23:41:00,26.7,16.2,29.97,NW,315,6.2,6.2,64,0.00,,---,0.02,VWS V13.01,2013-03-04 06:41:00,
2013-03-03 23:46:00,26.7,16.2,29.97,NW,315,8.0,8.0,64,0.00,,---,0.02,VWS V13.01,2013-03-04 06:46:00,
2013-03-03 23:51:00,26.6,16.1,29.97,NW,315,4.9,4.9,64,0.00,,---,0.02,VWS V13.01,2013-03-04 06:51:00,
2013-03-03 23:56:00,26.4,15.9,29.97,NW,315,4.0,4.4,64,0.00,,---,0.02,VWS V13.01,2013-03-04 06:56:00,